GFSNIL_prec_cloud_003.txt.gz
Cloud_Cover
0 4 0 5 32 58 30 11 5 5 5 6 18 68 72 17 24 5 0 1 3 4
2 4 20 100 99 100 83 7 5 32 58 88 44 14 60 12 5 5 5 4 5 5
8 100 100 89 84 90 32 23 77 100 100 100 89 93 22 5 4 5 4 1 2 0
99 95 10 5 28 19 99 100 100 100 69 97 78 5 4 1 3 0 0 0 0 0
5 30 65 55 100 83 63 72 100 100 100 95 5 5 5 3 0 0 0 0 0 0
5 5 8 82 34 15 62 67 100 83 6 21 5 2 0 0 0 0 0 0 0 0
5 20 8 11 30 59 23 63 63 90 9 4 0 0 0 0 0 0 0 0 0 1
5 15 48 10 14 42 87 99 23 0 0 0 0 0 0 0 0 0 0 0 5 5
86 100 27 15 53 55 40 4 0 0 0 0 0 0 0 0 4 5 5 5 5 5
100 15 18 56 58 17 4 0 0 0 0 0 0 0 0 3 5 5 5 8 5 5
27 5 8 46 5 0 1 1 0 0 0 0 0 0 0 5 12 5 12 6 75 59
26 5 5 5 0 2 0 0 0 0 0 0 0 0 2 29 74 6 5 84 100 97
7 5 0 0 1 0 0 0 0 0 0 0 0 0 5 58 30 60 84 93 80 89
5 0 4 5 0 0 0 0 0 0 0 0 0 4 6 74 72 98 86 62 86 71

GFSNIL_prec_cloud_006.txt.gz
Cloud_Cover
0 0 0 0 2 5 43 60 74 7 5 5 5 5 5 17 39 34 11 23 5 5
0 0 1 6 89 100 92 42 5 5 5 5 5 6 40 59 44 35 98 58 34 5
0 4 6 99 100 63 5 5 5 5 5 5 5 6 11 12 77 98 32 5 5 5
5 5 12 16 5 5 5 5 55 32 5 48 93 76 100 100 54 5 5 3 0 0
5 5 2 0 5 5 83 72 45 32 99 71 24 76 13 14 6 0 0 0 0 0
0 0 0 4 51 96 86 86 99 100 72 33 11 45 16 4 1 0 0 0 0 0
1 5 45 76 100 100 100 100 100 100 72 19 16 6 2 0 0 0 0 0 0 0
43 79 82 88 100 100 100 100 86 30 6 4 0 0 0 0 0 0 0 1 0 4
100 88 100 100 100 100 100 53 14 4 0 0 0 0 0 0 0 0 0 1 5 5
98 100 100 100 98 55 23 5 0 0 0 0 0 0 0 0 0 5 3 5 5 6
100 100 100 50 5 5 2 0 0 4 0 0 0 0 0 0 5 5 5 5 5 12
100 94 38 18 5 4 5 5 5 2 0 0 0 0 0 4 5 5 5 5 70 87
42 5 5 5 8 5 5 5 0 0 0 0 0 0 0 5 50 9 35 60 93 95
5 5 9 84 17 5 5 4 0 0 0 0 0 0 3 5 89 100 85 92 73 56

GFSNIL_prec_cloud_012.txt.gz
Cloud_Cover
5 51 5 2 0 0 0 0 0 0 0 0 5 5 4 4 5 5 5 5 5 4
29 5 4 0 0 0 0 0 0 5 5 5 5 5 5 5 5 44 5 5 5 5
5 5 0 0 0 0 0 4 5 5 5 3 4 5 5 5 5 5 5 5 5 5
5 5 0 0 0 5 5 1 1 5 5 5 5 5 5 5 5 5 5 5 5 2
5 1 0 0 5 0 0 4 4 5 5 15 5 5 14 5 5 5 5 0 0 0
0 0 5 5 3 0 3 5 8 27 50 55 68 54 52 26 5 0 0 0 1 4
5 5 5 4 0 5 5 52 63 19 55 66 52 38 20 5 5 5 0 5 0 0
5 4 5 4 35 84 94 39 44 96 95 21 5 5 5 5 5 4 4 0 0 4
5 5 6 91 100 100 51 86 100 91 43 5 65 5 5 5 5 0 0 0 5 5
5 6 99 75 88 98 100 96 100 73 63 96 5 5 5 4 3 1 4 5 5 5
93 79 78 100 98 59 96 96 95 100 56 5 5 5 1 5 5 4 0 0 5 5
78 86 80 9 58 96 93 100 87 7 6 23 5 5 5 5 5 5 5 5 16 75
7 5 15 89 90 100 93 44 5 78 30 5 5 5 5 33 5 5 5 24 66 32
5 6 93 100 99 58 5 48 75 12 5 5 1 0 5 71 100 28 68 60 72 5

GFSNIL_prec_cloud_015.txt.gz
Cloud_Cover
0 5 34 61 90 91 5 0 0 0 0 0 0 0 0 0 0 1 3 5 5 5
0 5 5 44 61 5 1 0 0 0 0 0 0 0 0 5 5 5 5 5 5 5
3 4 5 5 5 5 0 0 0 0 0 0 0 0 5 5 5 5 5 5 5 5
4 5 5 5 5 1 0 0 1 5 1 0 5 5 5 5 5 5 5 5 5 5
5 5 5 5 2 0 5 5 5 0 5 5 5 25 5 5 51 5 5 5 5 5
5 5 5 5 5 5 5 5 1 5 5 65 54 5 53 20 5 5 5 5 5 2
5 5 5 5 5 5 5 5 5 16 76 14 46 14 5 5 5 5 5 5 1 4
5 5 5 5 80 11 5 8 53 79 82 30 5 5 5 5 5 4 1 4 1 2
5 5 50 99 72 34 17 83 31 5 3 5 5 5 5 5 5 5 3 0 0 0
14 89 100 95 100 69 17 4 0 5 5 12 5 5 4 5 5 3 0 0 0 1
99 100 97 94 89 5 0 4 5 5 52 5 5 5 5 5 5 0 0 0 1 5
100 97 95 14 5 5 5 5 43 39 5 5 5 4 2 5 5 5 5 5 76 86
87 88 5 5 5 5 43 96 5 5 5 5 0 0 5 6 5 5 6 60 5 79
100 8 5 5 12 98 27 5 5 5 5 0 0 0 5 6 42 5 99 15 18 5

GFSNIL_prec_cloud_018.txt.gz
Cloud_Cover
61 47 1 0 0 6 7 14 10 5 1 0 0 0 0 0 0 0 0 2 4 5
5 4 0 0 0 4 5 41 5 0 0 0 0 0 2 2 0 5 5 5 5 5
5 5 5 5 5 5 4 2 5 0 0 0 5 0 0 5 5 5 11 11 5 5
5 5 5 5 5 5 5 5 5 5 5 5 2 0 5 5 18 68 33 5 5 5
5 17 20 5 5 5 5 5 5 5 5 5 5 5 5 6 5 5 4 5 5 4
66 99 73 15 5 5 5 5 5 5 5 5 5 6 6 0 0 0 5 5 2 0
98 96 87 16 5 5 5 5 5 5 5 5 5 2 2 0 2 5 5 5 0 0
100 91 9 5 12 5 5 26 86 5 5 5 0 0 0 4 5 5 5 0 0 0
54 5 66 45 6 9 92 96 5 5 5 0 0 5 5 5 5 5 3 4 0 0
5 50 31 58 10 91 82 7 5 5 5 0 5 5 5 5 5 5 5 3 1 5
36 60 56 80 94 68 50 5 5 0 2 5 5 3 0 5 5 5 5 5 5 5
6 46 71 98 69 27 5 5 5 5 5 5 0 0 4 5 5 5 5 5 16 5
80 86 78 57 5 5 5 5 5 5 3 4 0 5 5 5 59 6 5 78 11 6
40 88 57 65 5 5 5 5 5 5 3 1 5 3 4 6 61 10 100 17 38 5